Weather Roundup
Issued by NWS Springfield, MO

Home | Current Version | Previous Version | Text Only | Print | Product List | Glossary On
Versions: 1 2 3 4 5 6 7 8 9 10 11 12 13 14 15 16 17 18 19 20 21 22 23 24 25 26 27 28 29 30 31 32 33 34 35 36 37 38 39 40 41 42 43 44 45 46 47 48 49 50
000
NZUS99 KSGF 241857
HRRSGF

HOURLY WEATHER
NATIONAL WEATHER SERVICE SPRINGFIELD MO
100 PM CST FRI FEB 24 2017

......SGF CWA......

CITY           SKY/WX    TMP DP  RH WIND       PRES   REMARKS
SPRINGFIELD    CLOUDY    46  32  58 W21       29.75S
WEST PLAINS    CLOUDY    55  42  61 NW12G20   29.69R
ROLLA          LGT RAIN  49  37  63 W18G28    29.64S

......SURROUNDING SGF CWA......

CITY           SKY/WX    TMP DP  RH WIND       PRES   REMARKS
CHANUTE        PTSUNNY   45  26  47 W26G33    29.81S
PARSONS        MOSUNNY   48  25  40 W21G32    29.84R
COFFEYVILLE    MOSUNNY   49  27  42 W18G26    29.84S
EMPORIA        PTSUNNY   36  26  67 NW23G30   29.82R WCI  24
HARRISON AR    MOSUNNY   52  39  61 NW14G22   29.73S

......KANSAS AND MISSOURI......

CITY           SKY/WX    TMP DP  RH WIND       PRES   REMARKS
KANSAS CTY INT DRIZZLE   35  31  85 NW14      29.73R FOG     WCI  26
SEDALIA        CLOUDY    44  34  67 SW15G23   29.70S
ST JOSEPH      CLOUDY    32  31  96 NW21G30   29.75R FOG     WCI  20
ST LOUIS       CLOUDY    56  42  59 W20       29.60R
WICHITA        CLOUDY    36  24  62 NW23G32   29.89F WCI  24
TOPEKA         LGT SNOW  34  32  92 NW17G25   29.81R FOG     WCI  23
OLATHE         CLOUDY    38  33  82 NW14G22   29.73R WCI  30

......TENNESSEE......

CITY           SKY/WX    TMP DP  RH WIND       PRES   REMARKS
MEMPHIS        NOT AVBL
NASHVILLE      MOSUNNY   80  52  37 S22G35    29.67F

......ARKANSAS.......

CITY           SKY/WX    TMP DP  RH WIND       PRES   REMARKS
FAYETTEVILLE   PTSUNNY   50  37  61 W9        29.80S
FT SMITH       MOSUNNY   55  36  48 W18       29.81S
LITTLE ROCK    CLOUDY    69  57  65 SW14      29.69F

......OKLAHOMA.......

CITY           SKY/WX    TMP DP  RH WIND       PRES   REMARKS
TULSA          SUNNY     51  28  41 NW16G23   29.85S
PONCA CITY     MOSUNNY   43  23  45 NW16G29   29.90S
MCALESTER      SUNNY     55  29  36 NW14G21   29.85F
OKLAHOMA CITY  SUNNY     48  24  39 NW20G28   29.91F

......IOWA............

CITY           SKY/WX    TMP DP  RH WIND       PRES   REMARKS
DES MOINES     NOT AVBL
QUAD CITIES    CLOUDY    41  36  82 NW7       29.52R HAZE

......ILLINOIS........

CITY           SKY/WX    TMP DP  RH WIND       PRES   REMARKS
QUINCY         CLOUDY    44  39  82 W16       29.58R
CHICAGO        CLOUDY    39  36  89 N16       29.44F WCI  30




USA.gov is the U.S. government's official web portal to all federal, state and local government web resources and services.